Location: ??
(34.7252°N, 135.5457°E)
Time: 08:01:32
(UTC+00:00)

Meteor 2-9 Rocket - Pass Details

Date: 24 September 2020
Orbit: 791 x 896 km, 81.3° (Epoch: 28 October)

Event Time Altitude Azimuth Distance (km) Brightness Sun altitude
Rises 20:17:29 0° 348° (NNW) 3,358 7.2 -7.1°
Reaches altitude 10° 20:19:55 10° 346° (NNW) 2,408 6.5 -6.6°
Maximum altitude 20:25:18 69° 265° (W) 859 4.1 -5.5°
Drops below altitude 10° 20:30:33 10° 182° (S) 2,351 6.5 -4.4°
Sets 20:32:54 0° 180° (S) 3,273 7.3 -3.9°
